When you browse on this site, cookies collect data to enhance your experience and personalize the content and advertising you see.
Visit our Privacy Policy to learn more. By continuing to use the site, you agree to this use of cookies and data.
  • In Hungary
  • List of Countries
  • For 7 days
  • Water Temperature
  • Satellite Maps
  • Weather Map
  • News
  • Weather Widgets
  • user-avatar
    Login

    Hourly Weather Kaitong

    Today, 16 February, Saturday

    Time Temperature Precipitation Wind Pressure Humidity
    00:00 -13°C° 0 mm 3 mps 754 mmHg 38%
    01:00 -14°C° 0 mm 3 mps 754 mmHg 38%
    02:00 -14°C° 0 mm 3 mps 754 mmHg 38%
    03:00 -15°C° 0 mm 3 mps 754 mmHg 39%
    04:00 -14°C° 0 mm 2 mps 755 mmHg 41%
    05:00 -14°C° 0 mm 2 mps 755 mmHg 42%
    06:00 -14°C° 0 mm 2 mps 755 mmHg 43%
    07:00 -14°C° 0 mm 2 mps 755 mmHg 44%
    08:00 -15°C° 0 mm 2 mps 755 mmHg 58%
    09:00 -14°C° 0 mm 3 mps 755 mmHg 56%
    10:00 -12°C° 0 mm 3 mps 754 mmHg 53%
    11:00 -9°C° 0 mm 3 mps 754 mmHg 50%
    12:00 -9°C° 0 mm 4 mps 754 mmHg 48%
    13:00 -8°C° 0 mm 4 mps 753 mmHg 47%
    14:00 -7°C° 0 mm 4 mps 752 mmHg 46%
    15:00 -7°C° 0 mm 4 mps 752 mmHg 50%
    16:00 -8°C° 0 mm 4 mps 752 mmHg 54%
    17:00 -8°C° 0 mm 3 mps 752 mmHg 58%
    18:00 -9°C° 0 mm 4 mps 752 mmHg 58%
    19:00 -10°C° 0 mm 4 mps 752 mmHg 58%
    20:00 -11°C° 0 mm 5 mps 752 mmHg 58%
    21:00 -11°C° 0 mm 4 mps 752 mmHg 59%
    22:00 -11°C° 0 mm 4 mps 752 mmHg 60%
    23:00 -12°C° 0 mm 4 mps 752 mmHg 61%

    Tomorrow, 17 February, Sunday

    Time Temperature Precipitation Wind Pressure Humidity
    00:00 -12°C° 0 mm 3 mps 752 mmHg 63%
    01:00 -13°C° 0 mm 3 mps 752 mmHg 64%
    02:00 -13°C° 0 mm 3 mps 752 mmHg 65%
    03:00 -13°C° 0 mm 3 mps 752 mmHg 66%
    04:00 -13°C° 0 mm 3 mps 752 mmHg 67%
    05:00 -14°C° 0 mm 3 mps 752 mmHg 68%
    06:00 -13°C° 0 mm 3 mps 752 mmHg 67%
    07:00 -13°C° 0 mm 3 mps 752 mmHg 67%
    08:00 -12°C° 0 mm 3 mps 752 mmHg 66%
    09:00 -9°C° 0 mm 3 mps 752 mmHg 60%
    10:00 -7°C° 0 mm 3 mps 752 mmHg 53%
    11:00 -5°C° 0 mm 3 mps 752 mmHg 47%
    12:00 -4°C° 0 mm 3 mps 752 mmHg 45%
    13:00 -2°C° 0 mm 3 mps 751 mmHg 42%
    14:00 -1°C° 0 mm 4 mps 751 mmHg 40%
    15:00 -2°C° 0 mm 4 mps 751 mmHg 43%
    16:00 -3°C° 0 mm 4 mps 751 mmHg 46%
    17:00 -4°C° 0 mm 3 mps 751 mmHg 49%
    18:00 -5°C° 0 mm 4 mps 751 mmHg 51%
    19:00 -7°C° 0 mm 4 mps 751 mmHg 53%
    20:00 -8°C° 0 mm 4 mps 751 mmHg 54%
    21:00 -8°C° 0 mm 4 mps 751 mmHg 54%
    22:00 -8°C° 0 mm 4 mps 751 mmHg 54%
    23:00 -9°C° 0 mm 4 mps 751 mmHg 53%

    Day after tomorrow, 18 February, Monday

    Time Temperature Precipitation Wind Pressure Humidity
    00:00 -9°C° 0 mm 4 mps 751 mmHg 55%
    01:00 -10°C° 0 mm 4 mps 751 mmHg 56%
    02:00 -10°C° 0 mm 4 mps 751 mmHg 57%
    03:00 -10°C° 0 mm 4 mps 751 mmHg 58%
    04:00 -11°C° 0 mm 4 mps 751 mmHg 60%
    05:00 -11°C° 0 mm 4 mps 751 mmHg 61%
    06:00 -11°C° 0 mm 4 mps 751 mmHg 59%
    07:00 -10°C° 0 mm 4 mps 751 mmHg 58%
    08:00 -11°C° 0 mm 5 mps 751 mmHg 56%
    09:00 -8°C° 0 mm 5 mps 752 mmHg 49%
    10:00 -6°C° 0 mm 5 mps 752 mmHg 43%
    11:00 -5°C° 0 mm 5 mps 752 mmHg 36%
    12:00 -4°C° 0 mm 5 mps 751 mmHg 34%
    13:00 -2°C° 0 mm 5 mps 751 mmHg 31%
    14:00 -1°C° 0 mm 5 mps 750 mmHg 29%
    15:00 -2°C° 0 mm 5 mps 750 mmHg 32%
    16:00 -3°C° 0 mm 4 mps 750 mmHg 35%
    17:00 -4°C° 0 mm 3 mps 750 mmHg 38%
    18:00 -5°C° 0 mm 4 mps 750 mmHg 40%
    19:00 -5°C° 0 mm 4 mps 751 mmHg 43%
    20:00 -7°C° 0 mm 4 mps 751 mmHg 46%
    21:00 -7°C° 0 mm 4 mps 751 mmHg 46%
    22:00 -8°C° 0 mm 4 mps 751 mmHg 47%
    23:00 -8°C° 0 mm 4 mps 751 mmHg 48%

    19 February, Tuesday

    Time Temperature Precipitation Wind Pressure Humidity
    00:00 -8°C° 0 mm 4 mps 751 mmHg 48%
    01:00 -9°C° 0 mm 4 mps 751 mmHg 48%
    02:00 -9°C° 0 mm 4 mps 751 mmHg 49%
    03:00 -9°C° 0 mm 4 mps 751 mmHg 49%
    04:00 -9°C° 0 mm 4 mps 751 mmHg 50%
    05:00 -9°C° 0 mm 3 mps 751 mmHg 51%
    06:00 -8°C° 0 mm 3 mps 751 mmHg 50%
    07:00 -9°C° 0 mm 4 mps 751 mmHg 49%
    08:00 -9°C° 0 mm 4 mps 752 mmHg 48%
    09:00 -7°C° 0 mm 4 mps 752 mmHg 42%
    10:00 -5°C° 0 mm 4 mps 752 mmHg 37%
    11:00 -2°C° 0 mm 3 mps 752 mmHg 31%
    12:00 -1°C° 0 mm 3 mps 752 mmHg 28%
    13:00 0°C° 0 mm 3 mps 752 mmHg 25%
    14:00 0°C° 0 mm 3 mps 751 mmHg 23%
    15:00 -1°C° 0 mm 3 mps 751 mmHg 25%
    16:00 -1°C° 0 mm 2 mps 751 mmHg 26%
    17:00 -2°C° 0 mm 2 mps 751 mmHg 28%
    18:00 -1°C° 0 mm 1 mps 752 mmHg 30%
    19:00 -2°C° 0 mm 1 mps 752 mmHg 31%
    20:00 -2°C° 0 mm 1 mps 752 mmHg 32%
    21:00 -3°C° 0 mm 1 mps 752 mmHg 33%
    22:00 -3°C° 0 mm 1 mps 753 mmHg 34%
    23:00 -3°C° 0 mm 1 mps 753 mmHg 35%

    20 February, Wednesday

    Time Temperature Precipitation Wind Pressure Humidity
    00:00 -4°C° 0 mm 1 mps 753 mmHg 36%
    01:00 -4°C° 0 mm 1 mps 753 mmHg 38%
    02:00 -6°C° 0 mm 1 mps 753 mmHg 39%
    03:00 -6°C° 0 mm 1 mps 753 mmHg 40%
    04:00 -7°C° 0 mm 1 mps 753 mmHg 41%
    05:00 -7°C° 0 mm 1 mps 753 mmHg 42%
    06:00 -8°C° 0 mm 2 mps 753 mmHg 41%
    07:00 -7°C° 0 mm 2 mps 753 mmHg 40%
    08:00 -7°C° 0 mm 2 mps 754 mmHg 38%
    09:00 -5°C° 0 mm 2 mps 754 mmHg 33%
    10:00 -3°C° 0 mm 2 mps 754 mmHg 29%
    11:00 -1°C° 0 mm 2 mps 754 mmHg 24%
    12:00 0°C° 0 mm 3 mps 754 mmHg 22%
    13:00 +1°C° 0 mm 3 mps 753 mmHg 21%
    14:00 +2°C° 0 mm 3 mps 753 mmHg 19%
    15:00 +2°C° 0 mm 3 mps 753 mmHg 21%
    16:00 +1°C° 0 mm 3 mps 753 mmHg 24%
    17:00 0°C° 0 mm 3 mps 753 mmHg 26%
    18:00 -1°C° 0 mm 3 mps 753 mmHg 28%
    19:00 -2°C° 0 mm 3 mps 753 mmHg 30%
    20:00 -4°C° 0 mm 4 mps 754 mmHg 31%
    21:00 -5°C° 0 mm 3 mps 754 mmHg 32%
    22:00 -5°C° 0 mm 3 mps 754 mmHg 34%
    23:00 -6°C° 0 mm 3 mps 754 mmHg 35%

    21 February, Thursday

    Time Temperature Precipitation Wind Pressure Humidity
    00:00 -6°C° 0 mm 3 mps 754 mmHg 37%
    01:00 -7°C° 0 mm 3 mps 754 mmHg 38%
    02:00 -7°C° 0 mm 3 mps 754 mmHg 40%
    03:00 -8°C° 0 mm 3 mps 754 mmHg 41%
    04:00 -7°C° 0 mm 2 mps 754 mmHg 42%
    05:00 -8°C° 0 mm 2 mps 754 mmHg 44%
    06:00 -7°C° 0 mm 2 mps 754 mmHg 41%
    07:00 -7°C° 0 mm 2 mps 755 mmHg 39%
    08:00 -6°C° 0 mm 2 mps 755 mmHg 36%
    09:00 -4°C° 0 mm 2 mps 755 mmHg 31%
    10:00 -2°C° 0 mm 2 mps 755 mmHg 26%
    11:00 +1°C° 0 mm 2 mps 755 mmHg 21%
    12:00 +2°C° 0 mm 2 mps 754 mmHg 20%
    13:00 +3°C° 0 mm 2 mps 754 mmHg 18%
    14:00 +4°C° 0 mm 2 mps 753 mmHg 17%
    15:00 +4°C° 0 mm 1 mps 753 mmHg 19%
    16:00 +3°C° 0 mm 1 mps 753 mmHg 21%
    17:00 +2°C° 0 mm 1 mps 753 mmHg 23%
    18:00 +1°C° 0 mm 1 mps 753 mmHg 24%
    19:00 0°C° 0 mm 1 mps 753 mmHg 26%
    20:00 -3°C° 0 mm 2 mps 753 mmHg 27%
    21:00 -3°C° 0 mm 2 mps 753 mmHg 29%
    22:00 -3°C° 0 mm 2 mps 753 mmHg 30%
    23:00 -5°C° 0 mm 3 mps 753 mmHg 32%
    Show more